Lexington, KY

9:43 AM EST on February 28, 2017 (GMT -0500)
Blue Grass

Weather History for KLEX - May, 2014

Change the Weather History Date:

Friday, May 16, 2014

  Actual Average Record
Temperature  
Mean Temperature 50 °F 64 °F  
Max Temperature 59 °F 74 °F 91 °F (1962)
Min Temperature 41 °F 54 °F 33 °F (1997)
Degree Days  
Heating Degree Days 15 4  
Month to date heating degree days 56 76  
Since 1 July heating degree days 4821 4565  
Cooling Degree Days 0 3  
Month to date cooling degree days 61 27  
Year to date cooling degree days 76 49  
Growing Degree Days 1 (Base 50)    
Moisture  
Dew Point 41 °F    
Average Humidity 67    
Maximum Humidity 93    
Minimum Humidity 40    
Precipitation  
Precipitation 0.03 in 0.17 in 1.35 in (1946)
Month to date precipitation 3.35 2.69  
Year to date precipitation 19.27 16.76  
Snow  
Snow 0.00 in 0.00 in - ()
Month to date snowfall 0.0 0.0  
Since 1 July snowfall 27.1 13.0  
Snow Depth 0.00 in    
Sea Level Pressure  
Sea Level Pressure 30.03 in    
Wind  
Wind Speed 8 mph (SW)    
Max Wind Speed 24 mph    
Max Gust Speed 31 mph    
Visibility 10 miles    
Events Rain    
T = Trace of Precipitation, MM = Missing Value Source: NWS Daily Summary

Daily Weather History Graph

Daily Weather History Graph

Search for Another Location

Airport or City:

Trip Planner

Search our weather history database for the weather conditions in past years. The results will help you decide how hot, cold, wet, or windy it might be!

Date:

Astronomy

May. 16, 2014 Rise Set
Actual Time 6:27 AM EDT 8:42 PM EDT
Civil Twilight 5:57 AM EDT 9:12 PM EDT
Nautical Twilight 5:21 AM EDT 9:49 PM EDT
Astronomical Twilight 4:41 AM EDT 10:29 PM EDT
Moon 10:49 PM EDT (5/16) 8:08 AM EDT (5/16)
Length of Visible Light 15h 15m
Length of Day
14h 15m
Waning Gibbous, 95% of the Moon is Illuminated
May 16
Waning Gibbous
May 21
Last Quarter
May 28
New
Jun 5
First Quarter
Jun 13
Full

Hourly Weather History & Observations

Time (EDT) Temp. Windchill Dew Point Humidity Pressure Visibility Wind Dir Wind Speed Gust Speed Precip Events Conditions
12:54 AM 46.9 °F - 44.1 °F 90% 30.07 in 10.0 mi SSE 3.5 mph - N/A   Clear
1:54 AM 45.0 °F 43.5 °F 42.1 °F 90% 30.05 in 10.0 mi ESE 3.5 mph - N/A   Unknown
2:54 AM 44.1 °F 41.5 °F 42.1 °F 93% 30.04 in - SE 4.6 mph - N/A   Clear
3:54 AM 46.0 °F 44.8 °F 42.1 °F 86% 30.02 in 10.0 mi East 3.5 mph - N/A   Clear
4:54 AM 46.0 °F 43.1 °F 42.1 °F 86% 29.99 in 10.0 mi East 5.8 mph - N/A   Clear
5:54 AM 45.0 °F 41.8 °F 42.1 °F 90% 29.99 in 10.0 mi ESE 5.8 mph - N/A   Mostly Cloudy
6:54 AM 46.9 °F - 44.1 °F 90% 29.99 in 6.0 mi SSE 3.5 mph - 0.00 in   Overcast
7:54 AM 48.0 °F - 45.0 °F 89% 30.00 in - South 3.5 mph - 0.00 in   Overcast
8:35 AM 48.9 °F - 46.0 °F 90% 30.00 in 10.0 mi SSW 8.1 mph - N/A   Overcast
8:54 AM 48.9 °F - 46.0 °F 90% 30.01 in 10.0 mi SSW 6.9 mph - N/A   Overcast
9:54 AM 52.0 °F - 46.0 °F 80% 30.02 in 10.0 mi WSW 10.4 mph - N/A   Overcast
10:11 AM 51.1 °F - 45.0 °F 80% 30.02 in 10.0 mi West 9.2 mph - N/A   Overcast
10:54 AM 52.0 °F - 45.0 °F 77% 30.03 in 10.0 mi WSW 8.1 mph - N/A   Overcast
11:54 AM 55.0 °F - 44.1 °F 67% 30.02 in 10.0 mi West 9.2 mph - N/A   Mostly Cloudy
12:02 PM 55.0 °F - 45.0 °F 69% 30.02 in 10.0 mi WNW 6.9 mph - N/A   Overcast
12:11 PM 55.0 °F - 44.1 °F 67% 30.02 in 10.0 mi West 9.2 mph - N/A   Overcast
12:54 PM 55.9 °F - 43.0 °F 62% 30.01 in 10.0 mi West 6.9 mph - N/A   Overcast
1:54 PM 50.0 °F - 42.1 °F 74% 30.02 in 9.0 mi West 16.1 mph 23.0 mph 0.00 in Rain Light Rain
2:54 PM 48.9 °F - 43.0 °F 80% 30.03 in 10.0 mi SSW 11.5 mph - 0.03 in Rain Light Rain
3:54 PM 54.0 °F - 44.1 °F 69% 30.01 in 10.0 mi WSW 5.8 mph - 0.00 in   Mostly Cloudy
4:54 PM 55.9 °F - 41.0 °F 57% 30.00 in 10.0 mi SW 8.1 mph - N/A   Mostly Cloudy
5:54 PM 57.9 °F - 34.0 °F 41% 30.00 in 10.0 mi West 17.3 mph 28.8 mph N/A   Mostly Cloudy
6:54 PM 57.9 °F - 34.0 °F 41% 30.02 in 10.0 mi West 16.1 mph 24.2 mph N/A   Mostly Cloudy
7:54 PM 53.1 °F - 32.0 °F 45% 30.04 in 10.0 mi West 12.7 mph - N/A   Partly Cloudy
8:54 PM 50.0 °F - 36.0 °F 59% 30.07 in 10.0 mi West 8.1 mph - N/A   Clear
9:54 PM 48.0 °F - 36.0 °F 63% 30.09 in 10.0 mi WNW 9.2 mph - N/A   Clear
10:54 PM 46.0 °F 44.8 °F 36.0 °F 68% 30.11 in 10.0 mi WNW 3.5 mph - N/A   Clear
11:54 PM 45.0 °F 43.5 °F 36.0 °F 71% 30.11 in 10.0 mi SW 3.5 mph - N/A   Clear